Location: Trebic
(49.2170°N, 15.8830°E)
Time: 10:44:54
(UTC+02:00)

Transit 4A - Pass Details

Date: 30 August 2019
Orbit: 866 x 978 km, 66.8° (Epoch: 16 October)

Event Time Altitude Azimuth Distance (km) Brightness Sun altitude
Rises 02:24:45 0° 322° (NW) 3,634 11.3 -28.5°
Reaches altitude 10° 02:27:22 10° 318° (NW) 2,669 10.5 -28.4°
Enters shadow 02:32:00 46° 287° (WNW) 1,233 8.4 -28.0°
Maximum altitude 02:33:24 56° 242° (WSW) 1,088 - -27.9°
Drops below altitude 10° 02:39:14 10° 166° (SSE) 2,576 - -27.5°
Sets 02:41:44 0° 162° (SSE) 3,497 - -27.3°
